C/2020 F6 ( PanSTARRS )

Japanese version
Home page
Updated on May 3, 2020

---------------------------------------------------------------------

* Profile

Discovery Date March 21, 2020
Magnitude 21.4 mag
Discoverer Pan-STARRS 1 telescope (Haleakala)

* Orbital Elements

Epoch 2020 Apr. 21.0 TT = JDT 2458960.5
T 2020 Apr. 11.55814 TT                                 Rudenko
q   3.5110062            (2000.0)            P               Q
z  +0.0026431      Peri.  344.58990     -0.72844376     -0.68368092
 +/-0.0002314      Node   207.88024     -0.61816867     +0.62811748
e   0.9907199      Incl.  174.58126     -0.29535940     +0.37154923
From 54 observations 2020 Mar. 21-Apr. 28, mean residual 0".3.

* Magnitudes Graph

        m1 = 12.5 + 5 log d + 10.0 log r

---------------------------------------------------------------------

The orbital elements are published on M.P.E.C. 2020-H235.
The magnitudes graphs are made with Comet for Windows.

---------------------------------------------------------------------

Copyright(C) Seiichi Yoshida (comet@aerith.net). All rights reserved.